ANIK F1R

Last updated on Wed Sep 17 2025 00:02:46 GMT+0000 (Coordinated Universal Time)

1 28868U 05036A 25259.56241192 -.00000093 00000+0 00000+0 0 9990 2 28868 3.6071 79.9700 0002584 76.6765 294.2812 1.00271975 43714
UTC large
Height (km)
Speed (km/s)
/
Latitude / Longitude
Inclination (degrees)
Orbital Period (minutes)
Azimuth
Elevation
Range (km)
Doppler Factor

Next 0 passes for location: London (51.5072 / 0.1276)

Sorry there are no passes over London.